Temperature
23 22 22 22 22 21 21 22 22 23 23 23 23 22 21 20 19 18 17 17 16 16 15 15 14 14 13 13 12 12 12 12 11 11 11 11 11 11 11 11 11 11 11 11
23 22 22 22 22 22 21 22 22 22 22 24 22 21 21 20 19 18 18 17 17 16 16 15 15 14 13 13 12 12 12 12 11 11 11 11 11 11 11 11 11 11 11 11
23 22 22 23 23 22 22 22 22 22 23 23 22 21 21 20 19 19 18 17 17 17 16 16 15 14 14 13 13 12 12 12 12 11 11 11 11 11 11 11 11 11 11 11
23 23 22 24 23 23 23 23 23 23 23 22 22 21 20 20 19 19 18 17 17 17 16 16 15 14 14 13 13 13 12 12 12 11 11 11 11 11 11 11 11 11 11 11
23 23 23 24 23 22 23 23 24 23 23 22 20 20 21 20 19 19 18 18 17 17 16 16 15 15 14 14 13 13 13 12 12 12 12 12 11 11 11 11 11 11 11 11
22 22 23 24 23 22 23 23 24 23 22 22 21 23 23 20 19 19 18 18 17 17 16 16 15 15 14 14 14 13 13 12 12 12 12 12 12 11 11 11 11 11 11 11
22 23 24 23 21 21 23 24 22 22 22 21 22 23 21 19 19 19 18 18 17 17 16 16 15 15 15 14 14 13 13 13 13 12 12 12 12 12 11 11 11 11 11 11
22 22 23 21 21 23 23 22 21 21 21 20 20 20 19 19 19 19 19 18 18 17 16 16 16 15 15 15 14 14 14 13 13 13 12 12 12 12 11 11 11 11 11 11
23 23 21 19 20 19 18 19 19 20 19 19 19 19 19 18 18 18 18 18 18 17 17 16 16 16 15 15 15 14 14 14 13 13 13 12 12 12 11 11 11 11 11 11
22 22 20 18 17 17 17 17 18 18 18 18 18 19 18 18 18 18 18 18 18 17 17 16 16 16 16 15 15 15 14 14 14 13 13 13 13 12 12 11 11 11 11 11
22 22 19 17 16 16 16 16 17 17 18 18 18 18 18 18 18 18 18 18 18 17 17 17 16 16 16 16 16 15 15 14 14 14 13 13 13 13 12 12 12 11 11 11
23 21 21 19 16 16 16 16 16 17 17 18 18 18 18 18 18 18 18 18 18 17 17 16 16 16 16 16 16 15 15 14 14 14 14 14 13 13 13 13 13 12 12 12
19 17 17 15 15 15 15 16 16 16 17 17 17 17 17 17 17 17 17 17 17 17 17 16 16 16 16 16 16 16 15 15 15 14 14 14 14 13 13 13 13 13 12 12
15 15 15 14 14 15 15 15 15 15 16 16 16 16 17 16 16 17 17 17 17 16 16 16 16 16 16 16 16 16 15 15 15 15 15 14 14 13 13 13 12 12 12 12
14 14 14 13 14 14 14 14 14 14 15 15 15 15 16 15 15 15 16 16 16 16 15 15 15 15 15 15 15 15 15 15 15 15 15 14 14 14 13 13 13 13 12 12
13 13 13 13 13 13 13 13 13 13 14 14 14 14 14 14 14 14 14 15 15 14 14 14 14 15 15 15 15 15 15 15 15 15 14 14 14 14 14 13 13 13 13 12
13 12 12 12 12 12 12 12 12 12 12 12 13 13 13 13 13 13 13 13 13 13 13 13 13 13 14 14 14 14 14 14 14 15 14 14 14 14 13 13 13 13 13 13
13 13 13 12 12 11 11 11 11 11 11 11 11 11 12 12 12 12 11 11 11 12 12 12 12 12 12 13 13 13 13 13 13 13 13 13 13 13 13 13 13 13 13 13
11 11 11 11 10 10 10 10 10 10 10 10 10 10 10 10 10 10 10 10 10 10 10 10 11 11 11 11 12 12 12 12 12 12 12 12 12 12 13 13 13 13 13 13
10 10 10 9 9 9 9 9 9 9 9 9 9 9 9 9 9 9 8 9 9 8 9 9 9 9 9 10 10 11 11 11 11 11 11 11 11 11 12 12 12 12 12 12
9 9 8 8 8 8 8 8 8 8 8 8 8 8 8 8 8 8 8 8 7 8 8 8 8 8 8 9 9 9 9 9 9 9 9 10 10 10 11 11 11 12 12 12
8 8 8 8 8 7 7 7 7 7 7 7 7 7 7 7 7 7 7 6 6 7 7 6 7 7 7 7 7 8 8 8 8 8 8 8 8 9 9 10 10 10 11 11
8 7 7 7 7 7 6 6 6 6 6 6 6 6 6 6 6 6 6 6 6 6 6 5 6 6 6 6 6 6 6 6 6 6 6 7 7 7 8 8 8 9 9 10
7 7 7 7 6 6 6 6 6 6 6 6 6 6 6 6 5 5 5 5 5 5 5 5 5 5 5 5 5 5 5 5 5 5 5 6 6 6 6 7 7 7 8 8
7 7 6 6 6 6 6 6 5 5 5 5 5 5 5 5 5 5 5 5 5 5 4 4 5 5 4 4 4 4 4 4 4 4 4 4 5 5 5 5 6 6 6 7
6 6 6 6 6 6 5 5 5 5 5 5 5 5 5 5 5 4 4 4 4 4 4 4 4 4 4 4 4 4 4 4 4 4 4 4 4 4 4 4 5 5 5 6
6 6 6 6 5 5 5 5 5 5 5 5 5 5 5 4 4 4 4 4 4 4 4 4 4 4 4 3 3 3 3 3 3 3 3 3 3 3 3 4 4 4 4 4
Wind_Speed
2 1 3 5 8 10 11 8 7 7 9 12 9 6 5 4 6 6 7 7 6 6 4 4 3 3 3 3 3 3 4 5 6 6 6 6 7 7 8 8 9 8 8 8
5 4 5 7 9 11 11 10 11 12 11 6 4 4 4 4 5 7 7 7 6 6 5 5 4 3 2 2 2 3 3 4 5 5 5 6 7 7 8 8 8 8 8 8
4 4 5 8 9 12 8 9 8 7 5 4 5 4 4 4 5 7 7 7 7 6 6 5 4 3 2 2 2 2 2 3 3 4 5 5 6 6 7 7 8 8 8 8
3 5 5 2 3 5 8 7 9 9 8 6 6 6 5 5 5 6 6 7 7 6 6 5 4 3 3 2 2 2 2 2 2 3 4 5 5 6 6 6 7 7 8 8
4 4 4 2 4 5 5 3 4 6 5 4 3 5 4 3 5 5 5 5 6 6 6 5 5 4 4 3 3 2 2 2 2 2 3 4 5 5 5 6 6 6 6 6
4 4 3 3 5 3 4 4 2 3 3 2 3 2 1 1 2 4 4 4 5 6 6 6 5 5 5 4 4 3 3 2 2 2 3 3 4 4 5 5 5 5 5 5
7 5 3 2 4 5 4 2 2 1 2 3 3 3 3 1 1 2 4 5 5 6 6 6 6 6 7 6 5 4 3 3 3 3 3 3 3 3 4 4 4 4 5 4
6 6 4 5 6 5 1 3 2 3 3 4 4 3 3 2 2 2 3 4 6 6 6 6 6 7 8 7 6 5 4 4 4 4 4 3 3 3 3 3 3 3 4 4
6 2 3 4 2 1 3 3 3 3 3 4 4 3 2 2 2 3 4 4 5 6 6 6 7 8 9 7 6 6 6 6 6 5 5 4 4 4 4 3 3 3 3 3
5 5 3 3 2 2 3 4 4 4 3 3 3 2 2 2 1 2 3 4 5 6 6 6 7 8 9 7 6 7 8 8 7 7 6 6 5 5 4 4 4 4 3 3
6 4 5 5 2 1 2 1 1 1 1 1 1 1 1 1 1 1 2 3 4 6 7 7 6 7 8 7 8 9 9 9 8 7 7 6 6 5 6 5 4 5 5 4
6 6 6 5 3 0 1 1 2 2 3 3 2 2 2 2 2 2 2 2 3 5 6 7 6 7 7 7 8 10 10 9 8 7 7 7 7 6 9 9 6 8 9 8
2 3 3 4 3 2 2 2 3 3 4 4 4 4 3 3 3 3 3 3 3 4 5 6 5 6 6 6 8 10 11 10 8 8 8 8 7 7 7 8 12 12 12 12
5 6 5 5 4 3 4 4 5 5 6 5 5 5 5 5 5 5 5 5 4 4 4 4 5 6 7 7 7 10 11 11 10 9 9 9 9 8 8 8 7 7 11 14
8 6 5 6 6 6 5 6 6 6 6 7 6 6 6 6 7 7 7 7 5 5 6 6 6 7 8 7 8 9 9 9 9 9 9 10 9 9 9 10 9 9 8 8
11 9 9 9 8 7 7 6 6 6 6 7 7 7 7 7 7 7 8 8 8 8 8 8 9 10 10 8 8 8 8 10 10 10 10 10 10 10 10 10 10 10 10 9
15 12 12 11 10 8 7 6 6 6 6 6 7 7 7 7 8 9 9 9 8 8 9 10 11 11 11 10 9 8 8 8 9 9 10 11 11 11 11 11 11 11 11 10
10 10 11 11 10 10 9 7 7 7 6 6 6 7 8 8 9 9 9 9 8 9 11 13 13 13 12 11 10 8 8 8 8 8 9 10 11 11 11 12 12 13 11 10
12 12 12 11 10 9 9 8 7 7 6 6 7 8 8 8 8 8 8 10 11 11 13 14 15 13 13 13 12 8 9 9 9 8 9 9 10 11 11 12 12 12 12 11
13 13 13 12 10 9 9 8 7 7 6 6 7 7 8 8 8 8 8 9 9 9 11 13 13 13 13 14 14 9 9 9 9 9 9 9 9 10 11 11 12 12 12 12
14 14 13 11 10 9 8 7 7 6 6 6 6 6 6 6 7 7 7 7 9 11 11 11 11 12 13 14 12 10 10 10 10 9 9 9 10 10 10 11 11 12 12 12
13 12 12 11 10 8 7 6 6 5 5 5 4 4 5 5 6 6 7 6 8 11 10 9 10 14 16 14 10 11 11 11 10 10 10 10 10 10 10 11 11 11 11 11
12 11 11 10 9 8 7 5 5 4 3 3 3 3 4 4 4 5 5 6 7 10 9 8 12 16 17 11 10 11 12 12 12 11 11 11 11 11 11 12 11 11 11 10
11 10 10 9 8 7 6 5 4 3 3 2 1 1 2 2 3 3 4 4 7 9 7 9 12 15 13 9 10 10 11 11 12 12 12 11 11 11 11 11 11 11 11 12
10 10 9 8 7 6 5 5 4 3 3 2 1 1 1 1 2 4 4 6 7 8 7 9 11 13 10 9 10 10 10 10 11 11 11 12 12 12 12 12 11 11 11 11
9 8 7 7 5 5 5 4 4 3 3 2 2 2 2 2 3 4 4 5 7 7 7 7 9 9 9 10 10 11 11 11 11 11 12 12 13 13 12 12 14 12 11 11
8 7 6 6 6 6 5 5 5 4 4 3 3 3 3 3 4 4 5 6 6 7 7 8 8 9 9 9 10 11 11 11 11 11 11 11 12 12 12 14 12 11 11 11
Wind_Direction
232 162 201 219 207 203 221 244 263 280 288 299 313 306 288 253 229 225 227 231 235 239 247 252 266 279 294 312 322 327 337 348 354 356 358 356 357 0 3 3 4 7 7 7
205 199 224 241 232 220 230 243 254 273 286 295 311 292 270 240 223 226 228 230 233 235 238 244 253 261 268 289 305 316 333 348 352 352 357 357 356 360 4 3 4 7 8 8
212 186 233 249 229 213 216 221 237 260 289 316 298 288 273 256 232 233 233 229 230 231 230 235 241 247 255 275 283 297 325 344 345 350 356 353 353 359 0 2 7 7 10 10
222 206 232 107 109 198 222 241 236 257 281 287 287 290 272 256 247 239 232 228 225 225 221 226 229 226 234 241 253 281 308 328 342 345 350 349 350 353 353 358 5 5 9 11
227 229 246 199 183 189 209 221 223 249 276 287 284 263 235 221 236 241 228 222 218 217 216 218 219 217 222 231 238 255 280 301 320 330 340 343 347 349 349 353 359 2 9 8
220 235 223 135 129 171 219 202 129 233 276 260 241 270 52 73 219 225 216 206 203 206 211 215 216 214 224 235 239 245 255 268 282 299 314 328 337 340 343 345 347 350 3 4
227 236 242 122 141 173 210 125 71 282 270 229 238 321 12 356 219 211 204 200 200 204 210 216 215 215 228 236 241 241 241 247 251 260 276 298 314 322 329 337 340 345 355 360
208 219 209 132 165 199 9 27 322 296 278 252 261 291 302 282 237 213 202 199 202 208 214 215 216 222 234 240 241 233 232 239 246 253 263 272 282 296 305 315 323 333 340 351
211 208 82 156 195 330 322 291 295 293 293 270 261 270 280 276 248 220 215 207 207 217 223 220 219 227 240 241 236 231 232 238 243 247 248 254 265 273 280 286 302 321 331 340
228 227 196 184 219 282 287 280 291 293 287 258 251 275 283 283 277 241 229 223 218 223 232 233 229 231 242 246 236 235 239 245 244 247 248 244 247 260 268 276 282 292 304 315
226 201 180 186 193 301 300 301 312 338 30 336 283 316 322 312 319 292 253 236 230 234 243 249 242 239 241 241 239 242 246 248 247 245 251 255 248 249 258 261 269 277 289 293
221 188 190 175 153 207 177 92 53 83 81 57 38 21 12 6 0 343 320 277 249 251 257 262 259 253 249 240 239 245 251 252 250 246 242 246 252 247 224 237 238 237 252 269
187 145 151 139 140 142 139 106 86 79 70 60 48 37 31 29 22 15 6 347 305 283 277 278 276 273 272 256 244 246 251 253 251 249 245 243 245 253 258 232 224 234 236 238
167 157 160 162 149 135 131 120 104 88 73 61 52 47 43 41 36 27 13 355 339 325 317 309 301 298 298 283 261 255 256 255 252 250 248 247 245 246 250 258 255 245 224 221
181 187 162 144 138 132 131 129 114 90 74 63 53 47 43 40 36 28 17 10 10 7 356 344 332 324 319 304 282 269 263 261 255 254 250 248 247 245 246 249 253 255 252 218
162 155 151 149 142 135 131 124 109 89 73 62 54 47 44 44 41 34 28 24 25 20 10 1 352 340 332 319 301 284 272 264 261 259 255 249 246 245 245 245 248 250 248 246
160 163 163 158 148 137 124 111 101 91 78 65 55 50 50 49 45 37 30 26 26 22 14 6 354 344 340 334 318 300 290 278 252 256 257 254 250 248 247 247 247 248 248 242
174 163 158 152 145 135 124 112 100 89 78 69 64 58 52 46 40 32 27 26 28 28 19 7 357 348 349 347 334 315 305 297 286 273 266 261 258 255 253 251 250 250 252 239
148 143 139 137 134 130 122 113 102 91 82 75 69 62 55 47 39 33 31 30 25 18 8 360 350 353 355 354 343 326 319 313 304 294 284 276 267 263 259 255 254 252 250 248
139 137 134 131 129 125 119 113 106 96 85 78 73 66 56 45 36 33 35 38 27 7 355 354 355 0 356 354 347 339 335 329 321 313 305 295 286 278 271 265 261 258 254 250
142 140 137 134 128 123 120 117 112 103 92 79 71 64 54 45 36 31 27 26 17 3 356 355 2 2 357 350 345 349 346 341 336 329 322 313 304 296 288 281 273 266 261 257
146 145 143 140 137 132 128 122 117 112 103 89 76 63 51 39 32 33 36 20 6 359 358 4 5 1 353 349 357 357 354 350 345 340 335 329 321 313 305 299 291 283 275 269
149 149 148 149 146 140 136 134 130 126 117 103 80 57 44 32 18 13 14 9 0 355 355 3 356 353 348 353 359 358 357 356 351 346 342 336 331 325 319 313 307 300 291 284
152 152 151 150 150 153 153 149 145 142 140 133 104 44 14 9 12 10 353 346 343 337 343 349 346 347 343 352 355 354 354 353 351 347 343 339 337 333 328 323 317 313 307 300
158 158 158 162 166 168 165 163 167 173 183 190 209 245 290 314 319 327 329 333 335 328 332 338 339 337 339 345 346 345 344 345 342 340 341 341 338 335 332 328 324 319 315 310
168 171 174 179 178 177 181 187 196 200 209 222 240 257 272 278 285 293 301 312 319 320 323 328 333 332 338 339 336 334 333 333 334 335 336 336 335 335 333 332 327 324 320 317
176 178 182 189 194 199 202 206 215 220 224 234 250 265 275 282 286 292 297 304 312 317 320 322 324 326 327 327 326 327 328 328 327 327 328 328 328 328 328 327 325 322 320 317
Height
1529 1532 1533 1534 1536 1540 1539 1535 1537 1531 1530 1526 1525 1526 1527 1529 1530 1531 1532 1533 1533 1534 1534 1533 1533 1532 1530 1529 1527 1525 1523 1521 1518 1516 1513 1510 1507 1505 1502 1499 1496 1493 1490 1488
1531 1532 1533 1533 1532 1534 1536 1535 1533 1531 1529 1523 1525 1526 1526 1526 1527 1528 1529 1530 1531 1531 1532 1532 1531 1530 1529 1528 1526 1524 1523 1520 1518 1516 1513 1511 1508 1506 1503 1500 1497 1494 1491 1488
1528 1531 1532 1530 1522 1527 1529 1528 1528 1527 1523 1522 1523 1523 1524 1524 1525 1525 1526 1527 1528 1529 1529 1530 1530 1529 1528 1527 1525 1524 1522 1520 1518 1516 1514 1511 1509 1507 1504 1501 1498 1495 1492 1488
1527 1531 1537 1521 1519 1521 1523 1522 1522 1522 1521 1522 1522 1522 1522 1522 1522 1523 1524 1524 1525 1526 1527 1527 1528 1527 1526 1525 1524 1523 1522 1520 1518 1516 1514 1512 1509 1507 1505 1502 1499 1496 1493 1490
1526 1527 1524 1519 1519 1521 1521 1519 1518 1519 1519 1520 1520 1520 1519 1520 1520 1521 1521 1522 1523 1524 1525 1525 1526 1525 1525 1524 1523 1522 1521 1519 1518 1516 1514 1512 1510 1507 1505 1503 1500 1498 1495 1492
1527 1529 1527 1517 1516 1519 1521 1519 1517 1518 1518 1519 1519 1515 1516 1518 1518 1518 1519 1520 1520 1521 1522 1523 1523 1523 1523 1523 1522 1521 1520 1518 1517 1515 1513 1512 1510 1508 1506 1504 1501 1499 1496 1494
1525 1524 1516 1513 1518 1520 1522 1517 1516 1517 1517 1517 1517 1516 1518 1517 1517 1517 1517 1518 1518 1519 1520 1521 1521 1521 1521 1521 1521 1520 1518 1517 1516 1514 1513 1511 1509 1508 1506 1504 1502 1500 1498 1495
1520 1523 1518 1515 1516 1515 1514 1515 1516 1516 1516 1516 1516 1516 1516 1515 1515 1515 1515 1516 1517 1517 1518 1518 1519 1519 1519 1519 1518 1517 1516 1515 1514 1513 1512 1510 1509 1507 1506 1504 1502 1501 1499 1497
1510 1512 1512 1514 1514 1515 1515 1515 1515 1515 1515 1514 1514 1515 1514 1514 1514 1514 1514 1514 1515 1515 1516 1516 1516 1516 1517 1516 1516 1515 1514 1514 1513 1512 1510 1509 1508 1506 1505 1504 1502 1501 1499 1498
1509 1508 1511 1513 1513 1513 1513 1513 1513 1513 1512 1512 1513 1513 1513 1512 1512 1512 1512 1512 1513 1513 1513 1514 1514 1514 1514 1514 1513 1513 1512 1512 1511 1510 1509 1507 1506 1505 1504 1503 1501 1500 1499 1497
1505 1506 1510 1511 1511 1511 1511 1511 1511 1511 1511 1511 1511 1511 1511 1510 1510 1510 1510 1510 1510 1510 1511 1511 1511 1511 1511 1510 1510 1510 1509 1509 1508 1507 1506 1505 1504 1503 1501 1500 1499 1498 1497 1496
1498 1501 1504 1507 1508 1508 1509 1509 1509 1509 1509 1509 1509 1509 1509 1509 1508 1508 1508 1508 1507 1508 1508 1508 1508 1508 1507 1507 1507 1506 1506 1506 1505 1504 1503 1502 1501 1500 1498 1497 1496 1495 1494 1493
1500 1501 1503 1504 1505 1506 1507 1507 1508 1508 1508 1508 1507 1507 1507 1507 1506 1506 1505 1505 1505 1504 1504 1504 1504 1504 1504 1503 1503 1502 1502 1502 1501 1500 1499 1498 1497 1496 1496 1494 1493 1492 1491 1490
1497 1499 1501 1503 1503 1504 1505 1506 1507 1507 1507 1506 1506 1506 1505 1505 1505 1504 1503 1503 1502 1502 1501 1501 1500 1500 1500 1499 1498 1497 1497 1497 1496 1495 1495 1494 1493 1492 1491 1491 1490 1488 1487 1486
1494 1496 1498 1499 1501 1503 1504 1505 1506 1506 1506 1505 1505 1505 1504 1504 1503 1502 1501 1501 1500 1499 1498 1497 1497 1496 1495 1494 1493 1492 1492 1491 1491 1490 1489 1489 1488 1487 1486 1485 1485 1484 1483 1482
1491 1493 1495 1498 1499 1501 1503 1504 1504 1504 1504 1504 1504 1504 1503 1503 1502 1501 1500 1499 1498 1497 1495 1494 1493 1492 1490 1489 1488 1487 1486 1485 1485 1484 1483 1483 1482 1481 1481 1480 1479 1478 1478 1477
1487 1490 1493 1496 1497 1499 1501 1502 1503 1503 1503 1503 1503 1503 1502 1502 1501 1500 1499 1498 1496 1495 1494 1492 1490 1489 1487 1485 1483 1482 1480 1479 1478 1477 1476 1476 1475 1475 1474 1474 1473 1472 1472 1471
1484 1487 1490 1493 1495 1497 1499 1500 1501 1502 1502 1502 1502 1502 1501 1501 1500 1499 1498 1497 1496 1494 1492 1490 1488 1486 1484 1481 1479 1477 1475 1474 1473 1471 1470 1469 1469 1468 1468 1467 1466 1465 1465 1464
1481 1485 1488 1491 1494 1496 1497 1499 1500 1501 1501 1501 1501 1501 1501 1500 1499 1498 1497 1496 1494 1492 1490 1488 1485 1483 1481 1478 1476 1473 1471 1469 1467 1466 1465 1463 1462 1461 1460 1460 1459 1458 1458 1457
1481 1484 1487 1490 1492 1495 1496 1498 1499 1500 1500 1501 1501 1501 1500 1499 1498 1497 1496 1495 1493 1491 1489 1486 1484 1481 1478 1476 1473 1470 1468 1465 1463 1461 1459 1458 1456 1455 1454 1453 1452 1451 1451 1450
1481 1484 1487 1489 1492 1494 1496 1497 1498 1499 1500 1500 1500 1500 1500 1499 1498 1497 1495 1494 1492 1490 1487 1485 1482 1479 1476 1473 1470 1468 1465 1462 1460 1457 1455 1453 1451 1449 1448 1447 1445 1444 1443 1442
1481 1484 1487 1489 1491 1493 1495 1496 1498 1498 1499 1499 1499 1499 1499 1498 1497 1496 1495 1493 1491 1489 1486 1484 1481 1478 1475 1472 1469 1466 1463 1460 1457 1454 1452 1449 1447 1444 1442 1441 1439 1438 1436 1435
1481 1484 1486 1489 1491 1493 1494 1495 1497 1497 1498 1498 1498 1498 1498 1497 1496 1495 1494 1492 1490 1488 1485 1483 1480 1477 1473 1471 1468 1465 1462 1458 1455 1452 1449 1446 1443 1440 1438 1435 1433 1431 1430 1428
1481 1484 1486 1488 1490 1492 1493 1494 1495 1496 1496 1497 1497 1497 1496 1496 1495 1494 1492 1490 1488 1486 1484 1482 1479 1475 1472 1470 1467 1463 1460 1457 1453 1450 1447 1443 1440 1437 1434 1431 1428 1425 1423 1421
1480 1483 1485 1487 1489 1491 1492 1493 1494 1494 1495 1495 1495 1495 1494 1494 1493 1492 1490 1489 1487 1484 1482 1480 1477 1474 1471 1468 1465 1462 1459 1455 1452 1448 1445 1441 1437 1433 1430 1426 1423 1420 1417 1415
1480 1482 1484 1486 1487 1489 1490 1491 1492 1493 1493 1493 1494 1493 1492 1492 1490 1489 1488 1487 1485 1482 1480 1477 1475 1472 1469 1466 1463 1460 1456 1453 1449 1446 1442 1438 1434 1430 1426 1422 1419 1415 1412 1409
1478 1480 1482 1483 1485 1486 1487 1488 1489 1490 1491 1491 1491 1490 1490 1489 1488 1487 1485 1484 1482 1480 1478 1475 1472 1470 1467 1463 1460 1457 1454 1450 1447 1443 1439 1435 1431 1427 1422 1418 1414 1411 1407 1404